{"data":{"norad_id":39728,"epoch":"2026-05-25T04:01:15.665952Z","epoch_age_seconds":56417,"freshness":"FRESH","line1":"1 39728U 14023B   26145.16754243  .00000058  00000+0  00000+0 0  9990","line2":"2 39728   0.0476  84.3210 0000208  12.0638 265.1907  1.00272542 42229","mean_motion":1.00272542,"eccentricity":2.08e-5,"inclination_deg":0.0476,"raan_deg":84.321,"arg_perigee_deg":12.0638,"mean_anomaly_deg":265.1907,"bstar":0,"rev_number":4222,"period_min":1436.086062324,"perigee_km":35785.505725935,"apogee_km":35787.259769957,"semimajor_km":42164.519747946,"source":"CELESTRAK","updated_at":"2026-05-25T13:38:13.950670Z"}}